User: anonymous   Login
Location: Unspecified
(0.0000°N, 0.0000°E)
Time: 19:02:23
(UTC+00:00)
Language:

APRIZESAT 10 - Orbit

View from above orbital plane
View from above orbital plane
View from above satellite
View from above satellite

Ground track
Ground track

The orbit data is extracted from the following two-line orbital elements,

1 40019U 14033K   19077.54286853  .00000007  00000-0  92746-5 0  9990
2 40019  97.7546 287.9608 0085744  86.2734 274.8271 14.66980319253954
Epoch (UTC): 18 March 2019 13:01:43
Eccentricity: 0.0085744
inclination: 97.7546°
perigee height: 610 km
apogee height: 731 km
right ascension of ascending node: 287.9608°
argument of perigee: 86.2734°
revolutions per day: 14.66980319
mean anomaly at epoch: 274.8271°
orbit number at epoch: 25395

The dashed part of the orbit path shows where the satellite is in the earth's shadow,  

DLR